www.pogodaiklimat.ru

Погода и климат >> Архив погоды >> Индия >> Керала >> Кожикоде


ПОГОДА в Кожикоде

  • Прогноз погоды в Кожикоде
  • Монитор погоды в Кожикоде

АРХИВ ПОГОДЫ в Кожикоде

Время (UTC), дата Ветер
(напр.,м/с)
 
Видим.   Явления Облачность Т
(С)
Тd
(С)
f
(%)
Тe
(С)
Тes
(С)
Комфортность P
(гПа)
Po
(гПа)
Тmin
(С)
Tmax
(С)
R
(мм)
R24
(мм)
S
(см)
15 17.04 штиль 0 4000 м {гроза, дождь} 10/4 600 м
[Sc diur, vesp Ac As Ci sp]
+24.0 +22.5 91 +31 +31 очень
душно
1011.1 1010.5 19
18 17.04 штиль 0 4000 м {гроза, дождь} 10/4 600 м
[Sc diur, vesp Ac trans Ci sp]
+25.0 +22.5 86 +33 +33 очень
душно
1011.6 1011.0 19
21 17.04 штиль 0 4000 м 9/3 600 м
[Sc diur, vesp Ac trans Ci sp]
+25.0 +23.5 91 +34 +34 очень
душно
1009.0 1008.4 19
00 18.04 штиль 0 4000 м ясно +25.0 +23.5 91 +34 +34 очень
душно
1008.8 1008.2 19
03 18.04 штиль 0 10 км 1/1 600 м
[Sc diur, vesp]
+26.8 +22.7 78 +35 +43 очень
душно
1011.0 1010.4 +23.5 +36.8 19
06 18.04 З 1 10 км ясно +32.0 +27.0 75 +50 +74 опасность
перегрева
1010.3 1009.7
09 18.04 З 2 10 км 5/1 600 м
[Sc diur, vesp Ac trans]
+34.0 +25.6 62 +49 +61 опасность
перегрева
1007.8 1007.2
12 18.04 З 1 10 км 6/3 600 м
[Cb calv Ac trans]
+33.8 +26.7 67 +51 +52 опасность
перегрева
1007.5 1006.9 +35.4
15 18.04 штиль 0 4000 м 8/3 600 м
[Sc diur, vesp Ac As Ci sp]
+28.6 +24.3 78 +40 +40 очень
душно
1010.0 1009.4
18 18.04 штиль 0 4000 м 8/3 600 м
[Sc diur, vesp Ac As Ci sp]
+27.6 +23.2 77 +37 +37 очень
душно
1011.8 1011.2
21 18.04 штиль 0 4000 м 6/3 600 м
[Sc diur, vesp Ac trans Ci sp]
+27.4 +22.7 76 +36 +36 очень
душно
1009.8 1009.2
00 19.04 штиль 0 4000 м 5/3 600 м
[Sc diur, vesp Ac trans]
+26.2 +24.2 89 +36 +36 очень
душно
1008.7 1008.1
03 19.04 штиль 0 10 км 8/3 600 м
[Sc diur, vesp Ac As Ci sp]
+28.0 +24.9 83 +40 +44 очень
душно
1010.4 1009.8 +25.4 +35.4
06 19.04 штиль 0 10 км 5/1 600 м
[Sc diur, vesp Ac trans]
+33.4 +26.5 67 +50 +69 опасность
перегрева
1010.5 1009.9
09 19.04 З 2 10 км 4/1 600 м
[Cb calv Ac trans Ci sp]
+34.4 +26.1 62 +50 +64 опасность
перегрева
1007.3 1006.7
12 19.04 З 2 10 км 6/1 600 м
[Cb calv Ac trans Ci sp]
+32.8 +25.8 67 +48 +49 опасность
перегрева
1006.6 1006.0 +36.4
15 19.04 штиль 0 4000 м 9/3 600 м
[Sc diur, vesp Ac As Ci sp]
+30.6 +24.5 70 +43 +43 опасность
перегрева
1010.0 1009.4
18 19.04 штиль 0 4000 м 6/3 600 м
[Sc diur, vesp Ac trans Ci sp]
+28.6 +20.4 61 +35 +35 очень
душно
1010.4 1009.8
21 19.04 штиль 0 4000 м 5/3 600 м
[Sc diur, vesp Ac trans]
+27.6 +22.3 73 +36 +36 очень
душно
1008.5 1007.9
00 20.04 штиль 0 4000 м 5/3 600 м
[Sc diur, vesp Ac trans]
+26.4 +22.9 81 +35 +35 очень
душно
1007.2 1006.6
03 20.04 штиль 0 10 км 1/1 600 м
[Sc diur, vesp]
+28.4 +24.1 78 +40 +47 очень
душно
1008.9 1008.3 +25.6 +36.4
06 20.04 штиль 0 10 км 4/1 600 м
[Sc diur, vesp Ac trans]
+34.6 +26.0 61 +50 +71 опасность
перегрева
1009.1 1008.5
09 20.04 З 1 10 км 4/3 600 м
[Sc diur, vesp Ci sp]
+34.0 +26.2 64 +50 +63 опасность
перегрева
1006.2 1005.6
12 20.04 штиль 0 10 км 6/5 600 м
[Sc diur, vesp Ci sp]
+32.4 +26.3 70 +49 +50 опасность
перегрева
1004.7 1004.1 +35.7
15 20.04 штиль 0 4000 м 5/1 600 м
[Sc diur, vesp Ac trans]
+30.4 +25.3 74 +44 +44 опасность
перегрева
1007.6 1007.0
18 20.04 штиль 0 4000 м 10/4 600 м
[Sc diur, vesp Ac As Ci sp]
+30.0 +25.5 77 +44 +44 опасность
перегрева
1008.9 1008.3
21 20.04 штиль 0 4000 м 10/5 600 м
[Sc diur, vesp Ac As]
+27.2 +22.8 77 +36 +36 очень
душно
1008.2 1007.6
00 21.04 штиль 0 4000 м слаб. дождь 10/5 600 м
[Sc diur, vesp Ac As]
+25.2 +24.0 93 +35 +35 очень
душно
1009.1 1008.5 19
03 21.04 штиль 0 10 км {дождь} 9/3 600 м
[Sc diur, vesp Ac As Ci sp]
+25.8 +24.6 93 +36 +40 очень
душно
1009.3 1008.7 +24.2 +35.7 21
06 21.04 штиль 0 10 км {дождь} 4/1 600 м
[Sc diur, vesp Ac trans]
+30.0 +25.2 76 +44 +64 опасность
перегрева
1009.2 1008.6
09 21.04 З 1 10 км 3/1 600 м
[Sc diur, vesp Ci sp]
+33.0 +26.0 67 +49 +66 опасность
перегрева
1006.6 1006.0
12 21.04 штиль 0 10 км 6/3 600 м
[Sc diur, vesp Ac trans Ci sp]
+31.6 +26.6 75 +49 +50 опасность
перегрева
1005.8 1005.2 +33.8
15 21.04 штиль 0 4000 м 8/4 600 м
[Sc diur, vesp Ac As]
+30.0 +25.5 77 +44 +44 опасность
перегрева
1007.3 1006.7
18 21.04 штиль 0 4000 м 6/3 600 м
[Sc diur, vesp Ac As Ci sp]
+29.6 +25.1 77 +43 +43 опасность
перегрева
1008.1 1007.5
21 21.04 штиль 0 4000 м 4/1 600 м
[Sc diur, vesp Ci sp]
+28.0 +24.9 83 +40 +40 очень
душно
1006.4 1005.8
00 22.04 штиль 0 4000 м 1/1 600 м
[Sc diur, vesp]
+27.0 +24.7 87 +38 +38 очень
душно
1006.4 1005.8
03 22.04 штиль 0 10 км 10/5 600 м
[Sc diur, vesp Ac As Ci sp]
+29.6 +24.8 75 +42 +44 опасность
перегрева
1008.2 1007.6 +26.8 +33.8
06 22.04 ЮЗ 1 10 км 9/4 600 м
[Sc diur, vesp Ac As Ci sp]
+32.4 +25.7 68 +48 +56 опасность
перегрева
1008.4 1007.8
09 22.04 З 1 10 км 8/3 600 м
[Sc diur, vesp Ac trans Ci sp]
+35.2 +25.4 57 +50 +58 опасность
перегрева
1005.8 1005.2
12 22.04 З 1 10 км 6/3 600 м
[Sc diur, vesp Ac trans Ci sp]
+33.0 +26.9 70 +51 +52 опасность
перегрева
1005.4 1004.8 +36.1
15 22.04 штиль 0 4000 м 6/3 600 м
[Sc diur, vesp Ac trans Ci sp]
+30.4 +25.9 77 +45 +45 опасность
перегрева
1007.4 1006.8
18 22.04 штиль 0 4000 м 8/3 600 м
[Sc diur, vesp Ac As Ci sp]
+30.2 +26.0 78 +45 +45 опасность
перегрева
1008.6 1008.0
21 22.04 штиль 0 4000 м слаб. морось {гроза} 10/3 600 м
[Sc diur, vesp Ac As]
+24.0 +24.0 100 +33 +33 очень
душно
1008.5 1007.9 31
00 23.04 штиль 0 4000 м слаб. дождь 10/5 600 м
[Cu Sc Ac As]
+24.8 +23.6 93 +34 +34 очень
душно
1009.2 1008.6 49
03 23.04 штиль 0 10 км {дождь} 4/1 600 м
[Sc diur, vesp Ac trans Ci fib]
+25.8 +24.4 92 +36 +42 очень
душно
1010.4 1009.8 +22.9 +36.1 49
06 23.04 З 1 10 км 6/3 600 м
[Sc diur, vesp Ac trans Ci sp]
+30.2 +24.2 70 +42 +55 опасность
перегрева
1009.9 1009.3
09 23.04 З 2 10 км 1/1 600 м
[Sc diur, vesp]
+32.8 +25.2 64 +47 +63 опасность
перегрева
1007.8 1007.2
12 23.04 СЗ 2 10 км 4/1 600 м
[Cb calv Ac trans]
+31.8 +24.7 66 +45 +46 опасность
перегрева
1007.1 1006.5 +33.4
15 23.04 штиль 0 4000 м 5/3 600 м
[Sc diur, vesp Ac trans]
+29.8 +26.2 81 +45 +45 опасность
перегрева
1008.9 1008.3
18 23.04 штиль 0 4000 м 5/3 600 м
[Sc diur, vesp Ac trans]
+28.8 +25.4 82 +42 +42 опасность
перегрева
1009.1 1008.5
21 23.04 штиль 0 4000 м 6/1 600 м
[Sc diur, vesp Ac trans Ci sp]
+27.4 +23.9 81 +38 +38 очень
душно
1008.6 1008.0
00 24.04 штиль 0 4000 м 1/0
[Ci sp]
+26.4 +24.4 89 +37 +37 очень
душно
1009.1 1008.5
03 24.04 штиль 0 10 км 9/3 600 м
[Sc diur, vesp Ac As Ci sp]
+28.0 +24.9 83 +40 +43 очень
душно
1010.6 1010.0 +26.0 +33.4
06 24.04 ЮВ 1 10 км 9/3 600 м
[Sc diur, vesp Ac As Cs]
+32.4 +25.4 67 +47 +57 опасность
перегрева
1010.8 1010.2
09 24.04 З 2 10 км 5/1 600 м
[Sc diur, vesp Ac trans Ci sp]
+34.0 +27.1 67 +52 +65 опасность
перегрева
1007.6 1007.0

 

Местоположение метеостанции Кожикоде (Керала, Индия): широта 11.25 долгота 75.78 высота над уровнем моря 5 м.

В архиве по умолчанию представлена погода в Кожикоде за последнюю неделю. Архивные данные за месяц целиком и за предыдущие месяцы, начиная с января 2011 года, Вы можете получить, выбрав интересующий диапазон дат из раскрывающегося списка и нажав кнопку "Ввод!".


*Определитесь, кто Вы:
робот инопланетянин человек

Внимание! Время в таблицах - всемирное. Для получения местного времени необходимо прибавить поправку, которая равна 5.5 ч.

Смотрите также архив погоды в соседних городах и на ближайших метеорологических станциях:

Погода в Карипере (Керала, Индия) (23 км)
Погода в Каннаноре (Керала, Индия) (81 км)
Погода в Триссуре (Керала, Индия) (94 км)
Погода в Удагамандаламе (Тамилнад, Индия) (105 км)
Погода в Палаккаде (Керала, Индия) (109 км)
Погода в Кунуре (Тамилнад, Индия) (112 км)
Погода в Мадикери (Карнатака, Индия) (130 км)
Погода в Коти (Керала, Индия) (140 км)
Погода в Коимбатуре (Тамилнад, Индия) (141 км)
Погода в Чамраджнагаре (Карнатака, Индия) (146 км)

Пояснения к столбцам:

Ветер - указаны скорость ветра в м/с - средняя за 10 мин, порывы в срок и между сроками (в фигурных скобках) и направление, откуда дует ветер: С - северный, СВ - северо-восточный, В - восточный, ЮВ - юго-восточный, Ю - южный, ЮЗ - юго-западный, З - западный, СЗ - северо-западный.
Видимость - горизонтальная дальность видимости в метрах или километрах. При видимости от 1 до 10 км при отсутствии осадков обычно наблюдается дымка, при ухудшении видимости до 1 км и менее - туман. В сухую погоду видимость может ухудшаться дымом, пылью или мглою.
Явления - указаны атмосферные явления, наблюдавшиеся в срок или в последний час перед сроком; фигурными скобками обозначены явления, наблюдавшиеся между сроками (за 1-3 часа до срока); квадратными скобками обозначены град или гололедные отложения с указанием их диаметра в мм.
Облачность - указаны через наклонную черту общая и нижняя облачность в баллах и высота нижней границы облаков в метрах; квадратными скобками обозначены формы облаков: Ci - перистые, Cs - перисто-слоистые, Cc - перисто-кучевые, Ac - высококучевые, As - высокослоистые, Sc - слоисто-кучевые, Ns - слоисто-дождевые, Cu - кучевые, Cb - кучево-дождевые. Подробнее классификацию облаков см. в Атласе облаков (PDF).
T - Температура воздуха - температура, измеренная на высоте 2 м над землей.
Td - Температура точки росы - температура, при понижении до которой содержащийся в воздухе водяной пар достигнет насыщения.
f - Относительная влажность воздуха - влажноcть воздуха, измеренная на высоте 2 м над землей.
Te - Эффективная температура - температура, которую ощущает одетый по сезону человек в тени. Характеристика душности погоды. При расчете учитывается влияние влажности воздуха и скорости ветра на теплоощущения человека.
Tes - Эффективная температура на солнце - температура, которую ощущает человек, с поправкой на солнечный нагрев. Характеристика знойности погоды. Зависит от высоты солнца над горизонтом, облачности и скорости ветра. Ночью, в пасмурную погоду, а также при ветре 12 м/с и более поправка равна нулю.
P - Атмосферное давление - приведенное к уровню моря атмосферное давление.
Po - Атмосферное давление - измеренное на уровне метеостанции атмосферное давление.
Tmin - Минимальная температура - минимум температуры воздуха на высоте 2 м над землей.
Tmax - Максимальная температура - максимум температуры воздуха на высоте 2 м над землей.
R - Количество осадков - Количество выпавших осадков за период времени, мм. При наведении курсора мыши на число - период времени, за который выпало указанное количество осадков.
R24 - Количество осадков - Количество выпавших осадков за 24 часа, мм.
S - Снежный покров - Высота снежного покрова, см. При наведении курсора мыши на число - состояние снежного покрова и степень покрытия местности в баллах.